Location: Newark
(40.3500°N, 15.2333°E)
Time: 07:09:20
(UTC+00:00)

Altair - Pass Details

Date: 26 January 2020
Orbit: 1502 x 1682 km, 47.2° (Epoch: 17 February)

Event Time Altitude Azimuth Distance (km) Brightness Sun altitude
Rises 05:18:39 0° 197° (SSW) 4,814 10.1 -10.7°
Reaches altitude 10° 05:22:11 10° 187° (S) 3,856 9.7 -10.1°
Maximum altitude 05:30:29 32° 130° (SE) 2,590 9.5 -8.6°
Drops below altitude 10° 05:38:57 10° 73° (ENE) 3,944 10.6 -7.1°
Sets 05:42:34 0° 64° (ENE) 4,939 10.9 -6.4°
